Regional Weather Roundup
Issued by NWS

Home | Current Version | Previous Version | Graphics & Text | Print | Product List | Glossary On
Versions: 1 2 3 4 5 6 7 8 9 10 11 12 13 14 15 16 17 18 19 20 21 22 23 24 25 26 27 28 29 30 31 32 33 34 35 36 37 38 39 40 41 42 43 44 45 46 47 48 49 50
034
ASUS45 KSLC 170910
RWRUT

UTAH REGIONAL WEATHER ROUNDUP
NATIONAL WEATHER SERVICE SALT LAKE CITY UT
200 AM MST TUE JAN 17 2017

UTZ001>011-023>025-171000-

NORTHERN UTAH

CITY           SKY/WX    TMP DP  RH WIND       PRES   REMARKS
BRIGHAM CITY     N/A      9   4  82 N5        30.30S WCI   0
HILL AFB       NOT AVBL
LOGAN          PTCLDY     0  -2  91 NW3       30.31R FOG
OGDEN          PTCLDY    13   6  74 S8        30.27S WCI   2
SALT LAKE CITY PTCLDY    22  17  81 CALM      30.28F
TOOELE VALLEY  PTCLDY    18  16  93 S8        30.28F WCI   7
WENDOVER       CLOUDY    25  18  74 E7        30.28S WCI  17
HEBER CITY     PTCLDY    -9 -15  77 CALM      30.25R
WEST JORDAN    PTCLDY    19  19 100 SW3       30.27F

$$

UTZ011>015-024>027-171000-

CENTRAL/NORTHEAST UTAH

CITY           SKY/WX    TMP DP  RH WIND       PRES   REMARKS
PROVO AIRPORT  CLOUDY    23  18  81 SE12      30.29S WCI  12
MOAB/CANYONLAN CLEAR     30  23  75 E3        30.14R
DELTA          CLEAR     19  18  93 NE7       30.26S WCI  10
PRICE          PTCLDY    14   6  70 CALM      30.13R
RICHFIELD      PTCLDY    21  21 100 NE2       30.26S
ROOSEVELT      CLOUDY     5   3  92 CALM      30.27R
VERNAL         CLOUDY    17  12  80 MISG      30.24R

$$

UTZ013>016-019>022-027-171000-

SOUTHERN UTAH

CITY           SKY/WX    TMP DP  RH WIND       PRES   REMARKS
BRYCE CANYON   PTCLDY     5   1  83 N8        30.14R WCI  -8
CEDAR CITY     CLEAR     16  13  88 CALM      30.18F
MILFORD        CLEAR     20  16  84 N6        30.23S WCI  12
ST GEORGE      MOSUNNY   34  21  60 CALM      30.19R
HANKSVILLE     CLEAR     28  25  86 MISG      30.17S
KANAB          CLEAR     32  19  59 N8        30.16  WCI  25
BLANDING       CLOUDY    32  28  85 CALM      30.18R

$$

REGIONAL REPORTS     COLORADO/ARIZONA

CITY           SKY/WX    TMP DP  RH WIND       PRES   REMARKS
CRAIG, CO      CLOUDY    15  10  80 SW7       30.20R WCI   5
GRAND JUNCTION CLOUDY    27  21  78 CALM      30.16R
RIFLE, CO      CLOUDY    20  18  92 E3        30.18R
MONTROSE, CO   CLOUDY    31  26  82 SE6       30.16R WCI  25
CORTEZ, CO     CLOUDY    34  34 100 CALM      30.10R
COLORADO CITY    N/A     27  23  86 CALM      30.15S
PAGE, AZ       CLEAR     36  26  67 SE3       30.10S
GRAND CANYON   CLEAR     22  21  96 CALM      30.09S
KINGMAN, AZ    CLEAR     37  19  48 NE7       30.09S WCI  32
FLAGSTAFF, AZ  PTCLDY    26  23  88 CALM      30.07S

$$

REGIONAL REPORTS    NEVADA/IDAHO/WYOMING

CITY           SKY/WX    TMP DP  RH WIND       PRES   REMARKS
LAS VEGAS, NV  CLEAR     42  22  44 S3        30.12S
ELY, NY        CLOUDY     3   0  87 S8        30.22F WCI -10
ELKO, NV       CLOUDY    18  13  80 E8        30.27R WCI   8
POCATELLO, ID  CLOUDY     0  -3  87 CALM      30.30F
BURLEY, ID     CLEAR      7   2  80 NE7       30.27F WCI  -5
FORT BRIDGER,    N/A      4   2  90 W9        30.16F WCI -10
EVANSTON, WY   CLOUDY     4  -2  76 S8        30.15S WCI  -9
ROCK SPRINGS,  CLOUDY    -8 -13  78 W10       30.16R WCI -26

$$




USA.gov is the U.S. government's official web portal to all federal, state and local government web resources and services.